Weather History for Charles City, IA

Change the Weather History Date:

Saturday, November 30, 2013

  Actual Average Record
Temperature  
Mean Temperature 34 °F -  
Max Temperature 44 °F 35 °F 58 °F (1962)
Min Temperature 23 °F 19 °F -7 °F (1964)
Degree Days  
Heating Degree Days 32    
Moisture  
Dew Point 25 °F    
Average Humidity 72    
Maximum Humidity 86    
Minimum Humidity 53    
Precipitation  
Precipitation 0.00 in - - ()
Sea Level Pressure  
Sea Level Pressure 30.08 in    
Wind  
Wind Speed 11 mph (WSW)    
Max Wind Speed 15 mph    
Max Gust Speed 21 mph    
Visibility 10 miles    
Events      
Averages and records for this station are not official NWS values.
T = Trace of Precipitation, MM = Missing Value Source: NWS Daily Summary

Daily Weather History Graph

Daily Weather History Graph

Search for Another Location

Airport:

Trip Planner

Search our weather history database for the weather conditions in past years. The results will help you decide how hot, cold, wet, or windy it might be!

Date:

Astronomy

Nov. 30, 2013 Rise Set
Actual Time 7:21 AM CST 4:36 PM CST
Civil Twilight 6:49 AM CST 5:08 PM CST
Nautical Twilight 6:14 AM CST 5:43 PM CST
Astronomical Twilight 5:40 AM CST 6:18 PM CST
Moon 4:29 AM CST (11/30) 3:04 PM CST (11/30)
Length of Visible Light 10h 19m
Length of Day
9h 15m
Waning Crescent, 7% of the Moon is Illuminated
Nov 30
Waning Crescent
Dec 2
New
Dec 9
First Quarter
Dec 17
Full
Dec 25
Last Quarter

Hourly Weather History & Observations

Time (CST) Temp. Windchill Dew Point Humidity Pressure Visibility Wind Dir Wind Speed Gust Speed Precip Events Conditions
12:15 AM 28.4 °F 17.5 °F 21.2 °F 74% 30.19 in 10.0 mi SSE 13.8 mph 20.7 mph N/A   Clear
12:35 AM 28.4 °F 17.5 °F 21.2 °F 74% 30.19 in 10.0 mi SSE 13.8 mph - N/A   Clear
12:55 AM 28.4 °F 17.0 °F 21.2 °F 74% 30.18 in 10.0 mi SSE 15.0 mph - N/A   Clear
1:15 AM 28.4 °F 17.0 °F 21.2 °F 74% 30.18 in 10.0 mi South 15.0 mph - N/A   Clear
1:35 AM 28.4 °F 17.5 °F 21.2 °F 74% 30.18 in 10.0 mi South 13.8 mph - N/A   Clear
1:55 AM 28.4 °F 17.5 °F 21.2 °F 74% 30.17 in 10.0 mi South 13.8 mph - N/A   Clear
2:15 AM 28.4 °F 17.5 °F 21.2 °F 74% 30.16 in 10.0 mi South 13.8 mph - N/A   Clear
2:35 AM 28.4 °F 17.5 °F 21.2 °F 74% 30.15 in 10.0 mi South 13.8 mph - N/A   Partly Cloudy
2:55 AM 28.4 °F 17.5 °F 21.2 °F 74% 30.14 in 10.0 mi South 13.8 mph - N/A   Clear
3:15 AM 26.6 °F 15.2 °F 21.2 °F 80% 30.14 in 10.0 mi South 13.8 mph - N/A   Clear
3:35 AM 26.6 °F 15.2 °F 21.2 °F 80% 30.12 in 10.0 mi South 13.8 mph - N/A   Clear
3:55 AM 26.6 °F 15.2 °F 21.2 °F 80% 30.12 in 10.0 mi South 13.8 mph - N/A   Clear
4:15 AM 28.4 °F 17.5 °F 21.2 °F 74% 30.10 in 10.0 mi South 13.8 mph 20.7 mph N/A   Clear
4:35 AM 26.6 °F 16.2 °F 21.2 °F 80% 30.10 in 10.0 mi South 11.5 mph - N/A   Clear
4:55 AM 26.6 °F 16.2 °F 21.2 °F 80% 30.09 in 10.0 mi South 11.5 mph - N/A   Clear
5:15 AM 26.6 °F 15.7 °F 21.2 °F 80% 30.09 in 10.0 mi South 12.7 mph - N/A   Clear
5:35 AM 26.6 °F 15.7 °F 21.2 °F 80% 30.09 in 10.0 mi South 12.7 mph - N/A   Clear
5:55 AM 24.8 °F 14.6 °F 21.2 °F 86% 30.09 in 10.0 mi South 10.4 mph - N/A   Clear
6:15 AM 24.8 °F 16.1 °F 21.2 °F 86% 30.09 in 10.0 mi South 8.1 mph - N/A   Clear
6:35 AM 24.8 °F 15.3 °F 21.2 °F 86% 30.09 in 10.0 mi SSE 9.2 mph - N/A   Clear
6:55 AM 23.0 °F 13.1 °F 19.4 °F 86% 30.09 in 9.0 mi South 9.2 mph - N/A   Clear
7:15 AM 24.8 °F 16.1 °F 21.2 °F 86% 30.09 in 9.0 mi SSE 8.1 mph - N/A   Clear
7:35 AM 24.8 °F 14.0 °F 21.2 °F 86% 30.08 in 8.0 mi South 11.5 mph - N/A   Clear
7:55 AM 24.8 °F 14.6 °F 21.2 °F 86% 30.08 in 8.0 mi South 10.4 mph - N/A   Clear
8:15 AM 26.6 °F 16.8 °F 21.2 °F 80% 30.08 in 8.0 mi South 10.4 mph - N/A   Clear
8:35 AM 28.4 °F 19.1 °F 23.0 °F 80% 30.08 in 9.0 mi South 10.4 mph - N/A   Clear
8:55 AM 28.4 °F 19.1 °F 23.0 °F 80% 30.08 in 9.0 mi South 10.4 mph - N/A   Clear
9:35 AM 32.0 °F 23.6 °F 24.8 °F 75% 30.08 in 10.0 mi SSW 10.4 mph - N/A   Clear
9:55 AM 33.8 °F 26.4 °F 24.8 °F 70% 30.08 in 10.0 mi SSW 9.2 mph - N/A   Clear
10:15 AM 35.6 °F 28.6 °F 24.8 °F 65% 30.07 in 10.0 mi SW 9.2 mph - N/A   Clear
10:35 AM 37.4 °F 29.8 °F 26.6 °F 65% 30.07 in 10.0 mi WSW 11.5 mph - N/A   Clear
10:55 AM 39.2 °F 32.5 °F 26.6 °F 61% 30.07 in 10.0 mi West 10.4 mph - N/A   Clear
11:15 AM 39.2 °F 33.0 °F 26.6 °F 61% 30.06 in 10.0 mi WSW 9.2 mph - N/A   Clear
11:35 AM 41.0 °F 35.2 °F 26.6 °F 57% 30.06 in 10.0 mi WSW 9.2 mph - N/A   Clear
11:55 AM 41.0 °F 35.8 °F 26.6 °F 57% 30.04 in 10.0 mi SW 8.1 mph 16.1 mph N/A   Clear
12:15 PM 41.0 °F 35.8 °F 26.6 °F 57% 30.04 in 10.0 mi SW 8.1 mph - N/A   Clear
12:35 PM 42.8 °F 39.3 °F 28.4 °F 57% 30.04 in 10.0 mi West 5.8 mph 12.7 mph N/A   Clear
12:55 PM 42.8 °F 38.0 °F 28.4 °F 57% 30.03 in 10.0 mi SW 8.1 mph - N/A   Clear
1:15 PM 44.6 °F 40.7 °F 28.4 °F 53% 30.03 in 10.0 mi SW 6.9 mph - N/A   Clear
1:35 PM 44.6 °F 40.2 °F 28.4 °F 53% 30.02 in 10.0 mi West 8.1 mph - N/A   Clear
1:55 PM 44.6 °F 39.2 °F 28.4 °F 53% 30.02 in 10.0 mi West 10.4 mph - N/A   Clear
2:15 PM 44.6 °F 40.2 °F 28.4 °F 53% 30.02 in 10.0 mi West 8.1 mph - N/A   Clear
2:35 PM 44.6 °F 39.2 °F 28.4 °F 53% 30.02 in 10.0 mi WNW 10.4 mph - N/A   Clear
2:55 PM 44.6 °F 40.2 °F 28.4 °F 53% 30.02 in 10.0 mi West 8.1 mph - N/A   Clear
3:15 PM 44.6 °F 39.7 °F 28.4 °F 53% 30.03 in 10.0 mi WNW 9.2 mph - N/A   Clear
3:35 PM 44.6 °F 40.2 °F 28.4 °F 53% 30.03 in 10.0 mi WNW 8.1 mph - N/A   Clear
3:55 PM 42.8 °F 39.3 °F 28.4 °F 57% 30.04 in 10.0 mi West 5.8 mph - N/A   Clear
4:15 PM 41.0 °F 38.0 °F 26.6 °F 57% 30.04 in 10.0 mi West 4.6 mph - N/A   Clear
4:35 PM 39.2 °F 34.2 °F 26.6 °F 61% 30.04 in 10.0 mi West 6.9 mph - N/A   Clear
4:55 PM 39.2 °F 35.0 °F 26.6 °F 61% 30.05 in 10.0 mi WNW 5.8 mph - N/A   Clear
5:15 PM 37.4 °F 31.4 °F 26.6 °F 65% 30.05 in 10.0 mi NW 8.1 mph - N/A   Clear
5:35 PM 37.4 °F 32.1 °F 26.6 °F 65% 30.06 in 10.0 mi NW 6.9 mph - N/A   Clear
5:55 PM 35.6 °F 29.9 °F 26.6 °F 70% 30.07 in 10.0 mi NW 6.9 mph - N/A   Clear
6:15 PM 33.8 °F 27.7 °F 26.6 °F 75% 30.07 in 10.0 mi NW 6.9 mph - N/A   Clear
6:35 PM 33.8 °F 26.4 °F 26.6 °F 75% 30.07 in 10.0 mi NW 9.2 mph - N/A   Clear
6:55 PM 33.8 °F 27.0 °F 26.6 °F 75% 30.07 in 10.0 mi NW 8.1 mph - N/A   Clear
7:15 PM 33.8 °F 27.7 °F 26.6 °F 75% 30.08 in 10.0 mi NNW 6.9 mph - N/A   Clear
7:35 PM 33.8 °F 28.6 °F 26.6 °F 75% 30.08 in 10.0 mi NNW 5.8 mph - N/A   Clear
7:55 PM 32.0 °F 25.6 °F 24.8 °F 75% 30.08 in 10.0 mi NNW 6.9 mph - N/A   Clear
8:15 PM 32.0 °F 26.4 °F 26.6 °F 80% 30.08 in 10.0 mi NNW 5.8 mph - N/A   Clear
8:35 PM 32.0 °F 26.4 °F 24.8 °F 75% 30.09 in 10.0 mi NW 5.8 mph - N/A   Clear
8:55 PM 30.2 °F 26.7 °F 24.8 °F 80% 30.09 in 10.0 mi WNW 3.5 mph - N/A   Clear
9:15 PM 30.2 °F 25.4 °F 24.8 °F 80% 30.09 in 10.0 mi NW 4.6 mph - N/A   Clear
9:35 PM 32.0 °F 26.4 °F 24.8 °F 75% 30.09 in - NNW 5.8 mph - N/A   Clear
9:55 PM 30.2 °F 23.4 °F 24.8 °F 80% 30.09 in 10.0 mi NNW 6.9 mph - N/A   Clear
10:15 PM 30.2 °F 22.6 °F 24.8 °F 80% 30.10 in 10.0 mi NNW 8.1 mph - N/A   Scattered Clouds
10:35 PM 32.0 °F 24.2 °F 26.6 °F 80% 30.10 in 10.0 mi NW 9.2 mph - N/A   Mostly Cloudy
10:55 PM 32.0 °F 24.8 °F 26.6 °F 80% 30.10 in 10.0 mi NW 8.1 mph - N/A   Overcast
11:15 PM 32.0 °F 25.6 °F 26.6 °F 80% 30.11 in 10.0 mi NW 6.9 mph - N/A   Overcast
11:35 PM 32.0 °F 24.8 °F 26.6 °F 80% 30.11 in 10.0 mi NW 8.1 mph - N/A   Overcast
11:55 PM 32.0 °F 25.6 °F 26.6 °F 80% 30.11 in 10.0 mi NNW 6.9 mph - N/A   Overcast